Regional Weather Roundup
Issued by NWS Albany, NY

Home | Current Version | Previous Version | Text Only | Print | Product List | Glossary On
Versions: 1 2 3 4 5 6 7 8 9 10 11 12 13 14 15 16 17 18 19 20 21 22 23 24 25 26 27 28 29 30 31 32 33 34 35 36 37 38 39 40 41 42 43 44 45 46 47 48 49 50
000
ASUS41 KALY 291610
RWRALY

NEW YORK STATE HOURLY WEATHER ROUNDUP
NATIONAL WEATHER SERVICE ALBANY NY
1200 PM EDT FRI JUL 29 2016

NOTE: "FAIR" INDICATES FEW OR NO CLOUDS BELOW 12,000 FEET WITH NO
SIGNIFICANT WEATHER AND/OR NO OBSTRUCTIONS TO VISIBILITY.

NYZ032-033-038>043-046>054-057>066-NYZ062>081-082-084-291700-
EAST


CITY           SKY/WX    TMP DP  RH WIND       PRES   REMARKS
ALBANY         PTSUNNY   79  68  69 N8        29.90S
GLENS FALLS    MOSUNNY   81  62  52 N14       29.90S
POUGHKEEPSIE   MOSUNNY   82  67  60 N8        29.86F
NEWBURGH       PTSUNNY   77  70  78 CALM      29.90S
MONTGOMERY     MOSUNNY   82  69  64 N9        29.88F
WHITE PLAINS   CLOUDY    76  69  79 NE6       29.87R
ISLIP          CLOUDY    71  70  96 NE13      29.84S
NEW YORK CITY  PTSUNNY   77  66  68 NE16      29.85S
CENTRAL PARK   PTSUNNY   76  68  76 VRB6      29.89S
$$

NYZ005>009-017-018-044>046-055-056-291700-
CENTRAL


CITY           SKY/WX    TMP DP  RH WIND       PRES   REMARKS
FULTON         MOSUNNY   87  65  47 VRB7      29.93F
SYRACUSE       MOSUNNY   81  66  60 VRB7      29.91F
ROME           MOSUNNY   81  66  60 N3        29.92S
ELMIRA         SUNNY     85  60  42 NE10      29.92F
BINGHAMTON     MOSUNNY   81  61  50 N10       29.94F
MONTICELLO     MOSUNNY   75  68  78 SE3       29.94F
$$

NYZ026>034-041>043-087-291700-
NORTH


CITY           SKY/WX    TMP DP  RH WIND       PRES   REMARKS
WATERTOWN      SUNNY     84  55  36 N10G16    29.94F
FORT DRUM      NOT AVBL
MASSENA        MOSUNNY   76  58  53 N7        29.98R
SARANAC LAKE   MOSUNNY   75  51  43 CALM      29.98R
PLATTSBURGH    MOSUNNY   75  65  70 NE9       29.93S
$$

NYZ001>004-010>016-019>021-085-291700-
WEST


CITY           SKY/WX    TMP DP  RH WIND       PRES   REMARKS
NIAGARA FALLS  PTSUNNY   79  63  57 NE8       29.96S
BUFFALO        PTSUNNY   80  64  58 VRB5      29.96R
DUNKIRK        PTSUNNY   80  67  64 N12       29.95S
JAMESTOWN      MOSUNNY   77  59  53 N5        29.99S
WELLSVILLE     MOSUNNY   79  61  53 N8        30.01S
ROCHESTER      MOSUNNY   79  64  60 N12       29.96F
PENN YAN       PTSUNNY   80  65  59 VRB5      29.95F
$$

             KEY
       WCI = WIND CHILL INDEX
       VSB = VISIBILITY
       HX  = HEAT INDEX
$$



USA.gov is the U.S. government's official web portal to all federal, state and local government web resources and services.